7.5,91.8,1015.4,202105190030
7.4,93.6,1015.4,202105190100
7.4,94.0,1015.5,202105190130
7.2,99.9,1015.5,202105190200
7.1,99.9,1015.4,202105190230
7.1,99.9,1015.7,202105190300
7.0,99.9,1015.8,202105190330
6.9,99.9,1016.0,202105190400
6.8,99.9,1016.2,202105190430
7.0,99.9,1016.3,202105190500
7.6,99.9,1016.5,202105190530
7.7,99.9,1016.6,202105190600
10.7,94.6,1016.7,202105190630
9.5,96.5,1016.9,202105190700
9.3,99.9,1016.9,202105190730
9.1,86.4,1017.1,202105190800
9.7,73.6,1017.0,202105190830
13.4,47.5,1016.9,202105190900
12.8,37.0,1016.9,202105190930
11.4,37.7,1016.8,202105191000
13.2,33.2,1016.5,202105191030
11.8,33.9,1016.4,202105191100
13.1,23.7,1016.3,202105191130
12.2,25.7,1016.6,202105191200
10.1,41.7,1016.5,202105191230
10.8,30.0,1016.7,202105191300
11.1,39.4,1016.9,202105191330
11.7,33.4,1016.9,202105191400
12.4,27.1,1016.6,202105191430
10.9,50.2,1017.2,202105191500
7.6,74.9,1017.0,202105191530
8.7,89.0,1017.1,202105191600
7.8,99.9,1017.1,202105191630
8.5,99.9,1017.2,202105191700
8.8,97.6,1017.4,202105191730
9.0,99.9,1017.7,202105191800
8.7,99.9,1017.8,202105191830
8.7,99.9,1018.1,202105191900
8.0,99.9,1018.4,202105191930
7.6,99.9,1018.7,202105192000
7.3,99.9,1018.8,202105192030
7.3,99.9,1019.1,202105192100
7.3,99.9,1019.3,202105192130
7.2,99.9,1019.4,202105192200
7.0,99.9,1019.4,202105192230
6.7,99.9,1019.5,202105192300
6.6,99.9,1019.7,202105192330
6.6,99.9,1019.7,202105200000
6.8,99.9,1019.9,202105200030
6.8,99.9,1020.0,202105200100
6.6,99.9,1019.9,202105200130
6.6,99.9,1020.0,202105200200
6.3,99.9,1019.8,202105200230
6.3,99.9,1019.9,202105200300
6.3,99.9,1020.0,202105200330
6.3,99.9,1020.2,202105200400
8.2,99.9,1020.4,202105200430
9.4,99.9,1020.7,202105200500
11.8,53.4,1020.8,202105200530
12.1,54.7,1021.0,202105200600
12.9,47.5,1021.4,202105200630
13.4,27.2,1021.6,202105200700
10.2,48.5,1021.5,202105200730
12.9,32.0,1021.7,202105200800
11.6,39.5,1021.6,202105200830
13.0,27.2,1021.3,202105200900
11.0,41.7,1021.4,202105200930
11.2,47.7,1021.4,202105201000
12.7,45.0,1021.3,202105201030
11.5,39.4,1021.4,202105201100
10.4,43.4,1021.4,202105201130
10.2,45.5,1021.1,202105201200
11.0,41.2,1020.9,202105201230
11.6,27.7,1020.8,202105201300
11.9,25.2,1020.6,202105201330
12.4,21.7,1020.4,202105201400
12.1,28.7,1020.5,202105201430
12.0,36.2,1020.4,202105201500
12.1,36.2,1020.5,202105201530
12.1,31.7,1020.2,202105201600
12.1,32.4,1020.1,202105201630
12.1,32.2,1019.9,202105201700
11.7,34.2,1019.7,202105201730
11.4,37.5,1019.7,202105201800
11.3,34.7,1019.6,202105201830
11.0,38.0,1019.4,202105201900
10.9,40.5,1019.4,202105201930
10.9,41.7,1019.2,202105202000
10.9,42.7,1018.8,202105202030
10.9,41.5,1018.6,202105202100
10.2,57.0,1018.4,202105202130
10.1,56.7,1018.2,202105202200
9.5,60.7,1018.0,202105202230
9.3,55.4,1017.6,202105202300
9.6,49.2,1017.4,202105202330
9.5,48.2,1017.1,202105210000
